Flag for United Kingdom

Past Weather in Belfast, Northern Ireland, United Kingdom — Yesterday and Last 2 Weeks

Now
46 °F

Cool.


Feels Like: 43 °F
Forecast: 54 / 41 °F
Wind: 7 mph from North

Location: Belfast / Harbour
Current Time: Sep 25, 2020 at 9:45:56 pm
Latest Report: Sep 25, 2020 at 9:20 pm
Visibility: N/A
Pressure30.01 "Hg
Humidity: 76%
Dew Point: 39 °F
Location of BelfastLocation

Past Weather in Belfast — Graph

°F

Belfast Temperature Yesterday

Maximum temperature yesterday: 52 °F (at 1:20 pm)
Minimum temperature yesterday: 37 °F (at 4:20 am)
Average temperature yesterday: 46 °F

High & Low Weather Summary for the Past Weeks

 TemperatureHumidityPressure
High73 °F (Sep 15, 4:50 pm)100% (Sep 15, 5:50 am)30.45 "Hg (Sep 15, 5:50 am)
Low37 °F (Sep 24, 4:20 am)54% (Sep 25, 4:50 pm)29.21 "Hg (Sep 24, 7:20 am)
Average56 °F82%29.98 "Hg
* Reported Sep 10 8:20 pm — Sep 25 8:20 pm, Belfast. Weather by CustomWeather, © 2020

Note: Actual official high and low records may vary slightly from our data, if they occured in-between our weather recording intervals... More about our weather records

Belfast Weather History for the Previous 24 Hours

Scroll right to see more
 ConditionsComfort  
Time TempWeatherWind HumidityBarometerVisibility
8:20 pm
Fri, Sep 25
48 °FCool.9 mph71%30.01 "HgN/A
7:50 pm48 °FCool.13 mph71%29.98 "HgN/A
7:20 pm50 °FCool.12 mph67%29.98 "HgN/A
6:50 pm50 °FCool.12 mph67%29.98 "HgN/A
6:20 pm52 °FCool.13 mph62%29.95 "HgN/A
5:50 pm52 °FCool.16 mph62%29.95 "HgN/A
5:20 pm54 °FCool.15 mph58%29.95 "HgN/A
4:50 pm54 °FCool.15 mph54%29.95 "HgN/A
4:20 pm54 °FPassing clouds.18 mph58%29.95 "HgN/A
3:50 pm55 °FScattered clouds.14 mph55%29.92 "HgN/A
3:20 pm54 °FScattered clouds.15 mph67%29.92 "HgN/A
2:50 pm55 °FPassing clouds.18 mph59%29.92 "HgN/A
2:20 pm55 °FPassing clouds.15 mph59%29.92 "HgN/A
1:50 pm55 °FPassing clouds.14 mph63%29.92 "HgN/A
1:20 pm54 °FPassing clouds.16 mph63%29.92 "HgN/A
12:50 pm54 °FScattered clouds.12 mph72%29.89 "HgN/A
12:20 pm52 °FPassing clouds.9 mph82%29.89 "HgN/A
11:50 am52 °FLight rain. Partly sunny.12 mph82%29.89 "HgN/A
11:20 am52 °FBroken clouds.10 mph77%29.89 "HgN/A
10:50 am52 °FPartly sunny.9 mph77%29.86 "HgN/A
10:20 am52 °FCool.10 mph77%29.86 "HgN/A
9:50 am50 °FCool.9 mph82%29.83 "HgN/A
9:20 am48 °FCool.7 mph76%29.83 "HgN/A
8:50 am48 °FCool.8 mph71%29.83 "HgN/A
8:20 am46 °FCool.8 mph76%29.80 "HgN/A
7:50 am46 °FCool.7 mph76%29.80 "HgN/A
7:20 am45 °FQuite cool.7 mph81%29.77 "HgN/A
6:50 am46 °FCool.8 mph76%29.77 "HgN/A
6:20 am45 °FQuite cool.8 mph87%29.77 "HgN/A
5:50 am39 °FChilly.6 mph93%29.74 "HgN/A
5:20 am39 °FChilly.7 mph100%29.74 "HgN/A
4:50 am41 °FQuite cool.3 mph93%29.74 "HgN/A
4:20 am41 °FPassing clouds.1 mph93%29.71 "HgN/A
3:50 am41 °FPassing clouds.No wind93%29.71 "HgN/A
3:20 am41 °FPassing clouds.3 mph93%29.71 "HgN/A
2:50 am43 °FQuite cool.3 mph93%29.68 "HgN/A
2:20 am43 °FQuite cool.7 mph93%29.68 "HgN/A
1:50 am45 °FPassing clouds.7 mph87%29.65 "HgN/A
1:20 am45 °FPartly cloudy.7 mph93%29.65 "HgN/A
12:50 am45 °FLight rain. Partly cloudy.1 mph93%29.65 "HgN/A
12:20 am45 °FPassing clouds.2 mph93%29.62 "HgN/A
11:50 pm
Thu, Sep 24
45 °FPassing clouds.2 mph93%29.62 "HgN/A
11:20 pm45 °FLight rain. Passing clouds.2 mph93%29.59 "HgN/A
10:50 pm46 °FCool.7 mph82%29.59 "HgN/A
10:20 pm45 °FQuite cool.5 mph93%29.59 "HgN/A
9:50 pm46 °FPassing clouds.7 mph87%29.56 "HgN/A
9:20 pm46 °FPassing clouds.5 mph82%29.53 "HgN/A
Weather by CustomWeather, © 2020

See weather overview